Location: Glückauf
(52.1036°N, 9.6670°E)
Time: 18:19:19
(UTC+00:00)

Daily predictions for brighter satellites

Satellite Brightness Start Highest point End
(mag) Time Altitude Azimuth Time Altitude Azimuth Time Altitude Azimuth
NOSS 2-1 (E) 4.4 20:31:04 10° NW 20:35:07 53° NE 20:40:44 10° ESE
Cosmos 1943 3.4 20:32:56 10° SSW 20:38:37 83° WNW 20:44:19 10° NNE
CZ-2C R/B 4.2 20:35:50 10° NNE 20:40:17 42° E 20:44:37 10° S
Lacrosse 5 2.1 20:37:12 10° WNW 20:42:21 76° NNE 20:47:28 10° ESE
Cosmos 1603 3.8 20:36:52 10° SSW 20:42:35 86° WNW 20:48:23 10° NNE
H-2A R/B 3.8 20:42:06 10° N 20:46:03 36° WNW 20:50:05 10° SW
Cosmos 1975 Rocket 3.1 20:42:21 10° S 20:46:49 78° E 20:51:16 10° NNE
Helios 1A Rocket 3.1 20:44:33 10° S 20:48:37 76° WSW 20:52:44 10° NNW
Cosmos 1954 Rocket 4.1 20:43:34 10° NNW 20:48:54 75° ENE 20:54:09 10° SSE
Ariane Rocket 4.4 20:45:28 10° SSW 20:50:08 35° W 20:54:50 10° NNW
Resurs 01 Rocket 3.9 20:51:22 10° SW 20:54:46 21° W 20:58:12 10° NW
Lacrosse 4 Rocket 2.5 20:54:38 10° WSW 20:58:39 48° NW 21:02:38 10° NNE
Tiangong 3.2 20:58:14 10° SSW 20:59:31 12° S 21:00:12 11° SSE
Cosmos 2228 4.1 20:56:51 10° N 21:00:41 31° ENE 21:04:23 10° SE
Cosmos 1544 Rocket 3.5 20:58:54 10° N 21:03:15 88° E 21:07:34 10° S
Cosmos 1703 4.5 21:03:35 11° SE 21:06:33 26° E 21:09:48 10° NNE
FALCON 9 DEB 3.2 21:04:06 10° SW 21:07:14 46° SSE 21:10:24 10° E
Terra 2.0 21:03:10 10° S 21:07:55 75° WSW 21:12:42 10° NNW
USA 267 3.3 21:02:05 10° ENE 21:08:31 55° SE 21:14:55 10° SW
SL-8 R/B 3.8 21:04:19 10° WSW 21:09:01 54° S 21:13:43 10° E
Cosmos 1980 Rocket 4.0 21:05:27 10° NNW 21:10:08 25° NE 21:14:48 10° E
Cosmos 1455 2.2 21:07:15 10° NNW 21:11:03 83° W 21:14:42 11° S
Meteor 1-24 Rocket 3.6 21:08:10 10° SSW 21:13:28 88° W 21:18:55 10° NNE
Cosmos 2315 Rocket 4.3 21:08:21 10° SSW 21:14:42 76° W 21:21:03 10° N
Cosmos 1697 Rocket 3.7 21:09:47 10° NNW 21:15:03 38° NE 21:20:17 10° ESE
NOSS 2-1 (C) 3.9 21:12:24 10° NW 21:16:38 85° SW 21:22:11 12° SE
RESURS DK-1 3.5 21:15:19 10° NNW 21:19:10 36° NE 21:22:59 10° ESE
Cosmos 1371 Rocket 4.0 21:14:15 10° SSW 21:19:28 82° ESE 21:24:47 10° NNE
Cosmos 1452 Rocket 4.5 21:17:03 12° SSE 21:21:08 30° ESE 21:25:43 10° NE
Spot 2 Rocket 4.5 21:16:25 10° S 21:21:15 43° W 21:26:08 10° NNW
CZ-4B R/B 4.3 21:24:16 10° NW 21:25:29 12° WNW 21:26:41 10° W
NOSS 2-1 (D) 3.9 21:22:43 10° NW 21:27:00 75° SW 21:32:17 13° SE
ARIANE 5 R/B 3.0 21:23:37 11° S 21:27:55 62° WSW 21:32:22 10° NNW
ASTEX 1 4.2 21:23:38 10° NNE 21:28:17 37° E 21:32:06 14° SSE
Lacrosse 5 rocket 1.7 21:25:02 10° WNW 21:28:45 46° SW 21:31:47 15° SSE
Cosmos 2084 3.7 21:27:44 10° SSW 21:31:19 38° SE 21:34:55 10° ENE
Cosmos 2074 Rocket 4.1 21:30:01 10° N 21:36:21 86° WSW 21:42:02 13° S
ATLAS 2AS CENTAUR R/B 2.9 21:32:10 10° NW 21:39:14 62° SW 21:44:51 15° SSE
Cosmos 1624 Rocket 4.2 21:36:03 10° SSW 21:41:18 75° WNW 21:46:33 10° NNE
Cosmos 1656 3.6 21:36:54 10° NNW 21:42:23 87° WSW 21:46:54 16° SSE
GP-B 4.0 21:38:28 10° NNE 21:42:35 36° E 21:45:39 16° SE
USA 234 3.5 21:38:52 13° SE 21:44:45 58° SW 21:51:14 10° WNW
Cosmos 1833 Rocket 3.7 21:44:37 15° SSE 21:48:11 29° ESE 21:52:58 10° NE
Cosmos 2154 Rocket 4.0 21:49:24 10° N 21:55:42 87° W 22:00:52 16° S
Cosmos 1271 Rocket 4.4 21:54:16 10° NNW 21:57:43 29° W 22:01:10 10° SSW
Nadezhda 1 Rocket 4.0 21:54:38 14° S 21:59:56 73° E 22:06:01 10° NNE
Cosmos 2056 Rocket 4.3 21:55:48 10° SW 22:01:06 56° WNW 22:06:28 10° NNE
Cosmos 2082 Rocket 3.9 21:59:43 13° SE 22:02:30 18° E 22:06:08 10° ENE
Cosmos 1741 Rocket 4.1 21:57:42 10° NNW 22:03:03 79° WSW 22:07:02 18° SSE
Cosmos 2344 4.2 21:59:34 10° NW 22:08:06 86° NE 22:19:58 10° SE
Cosmos 1536 Rocket 4.4 22:14:01 10° SSW 22:18:11 45° WNW 22:22:23 10° N
Cosmos 1607 4.1 22:12:44 10° SW 22:18:59 75° NW 22:25:12 10° NE
Cosmos 968 Rocket 3.9 22:19:14 10° NNW 22:24:22 59° ENE 22:28:30 16° SE
Cosmos 1606 Rocket 3.8 22:20:16 10° NNW 22:24:33 63° W 22:27:26 20° S
H-2A R/B 4.1 22:20:54 10° NNE 22:24:55 43° E 22:27:16 22° SSE
Lacrosse 5 2.6 22:20:25 10° WNW 22:25:06 37° SW 22:27:55 20° S
COSMOS 2406 4.0 22:25:01 19° SSE 22:28:26 36° ESE 22:33:39 10° NE
Cosmos 724 4.3 22:26:29 10° SW 22:32:18 89° NW 22:38:09 10° NE
Meteor 1-11 4.4 22:30:33 20° S 22:34:27 59° E 22:39:58 10° NNE
SL-8 Rocket 4.1 22:28:36 10° N 22:34:55 77° ENE 22:39:30 19° SSE
Cosmos 2369 3.8 22:30:53 10° NNW 22:36:38 76° ENE 22:41:14 16° SE
TSX-5 4.4 22:33:04 12° SSW 22:37:09 89° ESE 22:42:58 10° NE
SJ 16-02 3.9 22:35:03 10° N 22:37:52 16° NE 22:40:41 10° E
Cosmos 2228 4.3 22:34:24 10° NNW 22:38:11 31° W 22:41:10 14° SSW
Cosmos 2218 Rocket 4.2 22:32:05 10° N 22:38:30 71° ENE 22:43:17 19° SSE
Cosmos 1328 4.0 22:37:11 19° SSW 22:39:58 72° WNW 22:44:00 10° N
Cosmos 2341 Rocket 4.1 22:34:02 10° N 22:40:27 85° W 22:45:04 20° S
SL-16 R/B 3.9 22:36:48 10° NNW 22:41:49 31° NE 22:46:48 10° ESE
FALCON 9 DEB 3.1 22:40:10 10° W 22:43:27 77° N 22:46:44 10° E
Cosmos 1408 2.5 22:43:33 28° S 22:45:14 66° E 22:48:40 10° NNE
Terra 4.3 22:44:55 10° WSW 22:46:32 12° W 22:48:08 10° WNW
Cosmos 2366 rocket 4.1 22:41:50 10° N 22:48:10 81° E 22:52:47 20° SSE
Cosmos 1825 3.1 22:46:54 22° SE 22:48:39 35° E 22:52:06 10° NNE
ALOS 2 2.6 22:46:37 23° S 22:49:19 75° WSW 22:53:44 10° NNW
Cosmos 1900 4.4 22:44:50 10° NW 22:50:01 74° SW 22:53:34 20° SSE
Cosmos 1867 4.0 22:44:57 10° NW 22:50:25 64° NE 22:55:50 10° SE
Cosmos 1726 Rocket 4.2 22:46:49 10° NNW 22:50:55 44° W 22:53:36 20° SSW
SL-8 R/B 3.9 22:46:34 10° W 22:51:13 49° SSW 22:55:52 10° ESE
USA 267 3.5 22:45:12 10° ENE 22:51:44 75° NNW 22:58:16 10° WSW
Cosmos 1980 Rocket 2.2 22:49:11 10° NNW 22:54:57 89° ENE 22:59:13 18° SSE
RESURS DK-1 3.3 22:53:22 10° NW 22:57:08 34° WSW 22:59:03 22° SSW
Cosmos 1697 Rocket 3.1 22:53:47 10° NW 22:59:12 50° WSW 23:02:42 21° S
Cosmos 1812 Rocket 4.3 22:56:31 10° N 23:00:51 46° ENE 23:03:53 18° SE
Cosmos 1331 Rocket 4.1 22:57:22 15° SSW 23:01:48 79° WNW 23:07:09 10° NNE
Cosmos 1452 Rocket 4.3 22:57:56 10° SW 23:03:04 50° WNW 23:08:12 10° NNE
ERS-2 2.2 23:04:11 10° NNE 23:07:45 59° ESE 23:09:26 28° S
Cosmos 1892 2.6 23:06:34 25° SSW 23:08:37 79° WNW 23:12:23 10° N
Cosmos 2084 Rocket 3.1 23:06:27 10° NW 23:10:20 85° SW 23:13:11 19° SE
USA 276 2.3 23:10:14 38° S 23:10:29 40° SSE 23:13:15 10° E
ADEOS Rocket 3.6 23:05:35 20° S 23:10:43 68° WSW 23:18:18 10° NNW
In-Cosmos 22 Rocket 4.2 23:08:21 21° S 23:12:11 78° E 23:17:44 10° NNE
Cosmos 2058 Rocket 3.7 23:09:59 10° NNW 23:14:10 44° W 23:16:43 21° SSW
Cosmos 1602 Rocket 4.1 23:15:24 23° SSE 23:17:47 48° E 23:21:58 10° NNE
Aureole 1 Rocket 4.5 23:11:36 10° NNW 23:17:56 72° ENE 23:25:13 12° SSE
Cosmos 2181 Rocket 4.0 23:15:18 20° SSW 23:19:47 82° W 23:26:01 10° N
Cosmos 2278 3.7 23:17:11 10° NNW 23:22:57 88° ENE 23:27:31 17° SSE
Cosmos 2322 Rocket 3.4 23:18:42 10° NNW 23:24:03 40° NE 23:29:23 10° ESE
Cosmos 1302 Rocket 4.0 23:21:10 20° SSW 23:24:48 85° ESE 23:30:02 10° NNE
Cosmos 192 4.3 23:21:56 20° SSW 23:25:22 87° WNW 23:30:19 10° NNE
ATLAS 2AS CENTAUR R/B 4.5 23:25:03 10° WNW 23:28:42 15° WSW 23:32:14 10° SW
Cosmos 1833 Rocket 3.1 23:26:16 10° SW 23:31:47 60° NW 23:37:23 10° NNE
CZ-2D R/B 4.3 23:31:56 10° NE 23:34:28 13° E 23:37:00 10° ESE
Geosat 4.0 23:35:57 16° SSE 23:39:58 88° SW 23:45:03 10° NNW
BREEZE-M DEB (TANK) 4.2 23:37:01 10° W 23:40:47 64° S 23:56:36 10° ESE
Okean 1-7 Rocket 3.9 23:39:49 21° SSW 23:42:37 61° WNW 23:47:04 10° N
Cosmos 1626 Rocket 3.7 23:42:03 23° SSW 23:44:41 66° WNW 23:49:01 10° N
Cosmos 2082 Rocket 2.2 23:41:32 19° SSW 23:45:46 86° ESE 23:51:32 10° NNE
Cosmos 1821 Rocket 4.0 23:40:07 10° NNW 23:46:27 79° W 23:50:56 20° S
Cosmos 1869 4.2 23:45:30 10° NNW 23:49:02 35° W 23:50:55 22° SW
ATLAS 5 CENTAUR R/B 2.7 23:51:03 20° SSE 23:52:21 23° ESE 23:55:39 10° ENE
Cosmos 1238 4.3 23:52:31 30° SSE 23:53:47 61° E 23:56:48 10° NNE
Cosmos-2242 3.0 23:50:46 10° NNW 23:55:01 70° W 23:57:29 24° S
